When you browse on this site, cookies collect data to enhance your experience and personalize the content and advertising you see.
Visit our Privacy Policy to learn more. By continuing to use the site, you agree to this use of cookies and data.
  • en Suisse
  • Liste des pays
  • À 7 jours
  • Température de l'eau
  • Carte satellitaire
  • Carte météo
  • Widgets météo
  • user-avatar
    Se connecter

    Météo par heure à Pabna

    Ce jour, 17 Juin, Lundi

    Heure Température Précipitation Vent Pression Humidité
    00:00 +32°C° 0 mm 2 m/s 746 mmHg 75%
    01:00 +33°C° 0 mm 3 m/s 746 mmHg 76%
    02:00 +33°C° 0 mm 4 m/s 746 mmHg 76%
    03:00 +32°C° 0 mm 5 m/s 745 mmHg 77%
    04:00 +32°C° 0 mm 5 m/s 745 mmHg 77%
    05:00 +32°C° 0 mm 5 m/s 746 mmHg 78%
    06:00 +32°C° 0 mm 4 m/s 746 mmHg 82%
    07:00 +33°C° 0 mm 4 m/s 746 mmHg 77%
    08:00 +35°C° 0 mm 4 m/s 747 mmHg 72%
    09:00 +36°C° 0 mm 3 m/s 747 mmHg 67%
    10:00 +37°C° 0 mm 3 m/s 747 mmHg 60%
    11:00 +39°C° 0 mm 2 m/s 746 mmHg 53%
    12:00 +41°C° 0 mm 2 m/s 746 mmHg 46%
    13:00 +41°C° 0 mm 2 m/s 745 mmHg 42%
    14:00 +42°C° 0 mm 1 m/s 744 mmHg 38%
    15:00 +43°C° 0 mm 1 m/s 743 mmHg 34%
    16:00 +43°C° 0 mm 2 m/s 743 mmHg 36%
    17:00 +43°C° 0 mm 3 m/s 743 mmHg 37%
    18:00 +42°C° 0 mm 4 m/s 743 mmHg 39%
    19:00 +41°C° 0.2 mm 5 m/s 744 mmHg 46%
    20:00 +39°C° 0.2 mm 6 m/s 744 mmHg 52%
    21:00 +36°C° 0.2 mm 7 m/s 745 mmHg 59%
    22:00 +35°C° 0.3 mm 6 m/s 745 mmHg 62%
    23:00 +35°C° 0.3 mm 4 m/s 746 mmHg 64%

    Demain, 18 Juin, Mardi

    Heure Température Précipitation Vent Pression Humidité
    00:00 +34°C° 0.3 mm 3 m/s 746 mmHg 67%
    01:00 +34°C° 0 mm 3 m/s 746 mmHg 69%
    02:00 +33°C° 0 mm 3 m/s 745 mmHg 70%
    03:00 +33°C° 0 mm 3 m/s 745 mmHg 72%
    04:00 +33°C° 0 mm 3 m/s 745 mmHg 74%
    05:00 +31°C° 0 mm 3 m/s 745 mmHg 77%
    06:00 +31°C° 0 mm 3 m/s 746 mmHg 79%
    07:00 +34°C° 0 mm 4 m/s 746 mmHg 72%
    08:00 +36°C° 0 mm 4 m/s 746 mmHg 64%
    09:00 +37°C° 0 mm 4 m/s 747 mmHg 57%
    10:00 +39°C° 0 mm 3 m/s 746 mmHg 50%
    11:00 +42°C° 0 mm 3 m/s 746 mmHg 44%
    12:00 +42°C° 0 mm 2 m/s 745 mmHg 37%
    13:00 +43°C° 0 mm 2 m/s 745 mmHg 34%
    14:00 +45°C° 0 mm 2 m/s 744 mmHg 32%
    15:00 +45°C° 0 mm 2 m/s 743 mmHg 29%
    16:00 +45°C° 0 mm 2 m/s 743 mmHg 32%
    17:00 +44°C° 0 mm 3 m/s 743 mmHg 34%
    18:00 +43°C° 0 mm 3 m/s 743 mmHg 36%
    19:00 +41°C° 0.1 mm 4 m/s 743 mmHg 44%
    20:00 +39°C° 0.1 mm 6 m/s 744 mmHg 52%
    21:00 +36°C° 0.1 mm 7 m/s 745 mmHg 60%
    22:00 +36°C° 0 mm 6 m/s 745 mmHg 61%
    23:00 +35°C° 0 mm 5 m/s 746 mmHg 61%

    Après-demain, 19 Juin, Mercredi

    Heure Température Précipitation Vent Pression Humidité
    00:00 +35°C° 0 mm 4 m/s 746 mmHg 62%
    01:00 +34°C° 0 mm 4 m/s 746 mmHg 63%
    02:00 +34°C° 0 mm 4 m/s 746 mmHg 64%
    03:00 +34°C° 0 mm 4 m/s 745 mmHg 66%
    04:00 +33°C° 0 mm 4 m/s 746 mmHg 68%
    05:00 +33°C° 0 mm 4 m/s 746 mmHg 71%
    06:00 +33°C° 0 mm 5 m/s 746 mmHg 74%
    07:00 +34°C° 0 mm 5 m/s 746 mmHg 69%
    08:00 +36°C° 0 mm 5 m/s 747 mmHg 63%
    09:00 +39°C° 0 mm 5 m/s 747 mmHg 58%
    10:00 +40°C° 0 mm 4 m/s 746 mmHg 52%
    11:00 +42°C° 0 mm 4 m/s 746 mmHg 46%
    12:00 +43°C° 0 mm 4 m/s 746 mmHg 40%
    13:00 +44°C° 0 mm 3 m/s 745 mmHg 37%
    14:00 +45°C° 0 mm 3 m/s 744 mmHg 34%
    15:00 +45°C° 0 mm 2 m/s 743 mmHg 31%
    16:00 +44°C° 0 mm 3 m/s 743 mmHg 35%
    17:00 +43°C° 0 mm 4 m/s 743 mmHg 39%
    18:00 +42°C° 0 mm 5 m/s 743 mmHg 43%
    19:00 +41°C° 0.1 mm 6 m/s 744 mmHg 49%
    20:00 +39°C° 0.1 mm 7 m/s 745 mmHg 55%
    21:00 +36°C° 0.1 mm 7 m/s 745 mmHg 62%
    22:00 +36°C° 0.2 mm 7 m/s 745 mmHg 64%
    23:00 +35°C° 0.2 mm 6 m/s 746 mmHg 67%

    20 Juin, Jeudi

    Heure Température Précipitation Vent Pression Humidité
    00:00 +34°C° 0.2 mm 5 m/s 746 mmHg 69%
    01:00 +33°C° 0 mm 5 m/s 746 mmHg 71%
    02:00 +33°C° 0 mm 5 m/s 745 mmHg 73%
    03:00 +33°C° 0 mm 5 m/s 745 mmHg 74%
    04:00 +32°C° 0 mm 5 m/s 746 mmHg 76%
    05:00 +32°C° 0 mm 5 m/s 746 mmHg 78%
    06:00 +32°C° 0 mm 5 m/s 746 mmHg 80%
    07:00 +34°C° 0 mm 5 m/s 747 mmHg 74%
    08:00 +35°C° 0 mm 5 m/s 747 mmHg 68%
    09:00 +37°C° 0 mm 5 m/s 748 mmHg 62%
    10:00 +40°C° 0 mm 5 m/s 747 mmHg 55%
    11:00 +41°C° 0 mm 5 m/s 747 mmHg 49%
    12:00 +43°C° 0 mm 5 m/s 746 mmHg 42%
    13:00 +44°C° 0 mm 4 m/s 746 mmHg 39%
    14:00 +44°C° 0 mm 4 m/s 745 mmHg 37%
    15:00 +45°C° 0 mm 3 m/s 744 mmHg 34%
    16:00 +44°C° 0 mm 4 m/s 744 mmHg 38%
    17:00 +43°C° 0 mm 4 m/s 744 mmHg 41%
    18:00 +42°C° 0 mm 4 m/s 744 mmHg 44%
    19:00 +40°C° 0.4 mm 5 m/s 744 mmHg 50%
    20:00 +39°C° 0.4 mm 5 m/s 745 mmHg 55%
    21:00 +36°C° 0.4 mm 6 m/s 746 mmHg 60%
    22:00 +35°C° 0.3 mm 6 m/s 746 mmHg 64%
    23:00 +35°C° 0.3 mm 6 m/s 746 mmHg 68%

    21 Juin, Vendredi

    Heure Température Précipitation Vent Pression Humidité
    00:00 +34°C° 0.3 mm 5 m/s 747 mmHg 72%
    01:00 +33°C° 0 mm 5 m/s 746 mmHg 73%
    02:00 +33°C° 0 mm 5 m/s 746 mmHg 75%
    03:00 +33°C° 0 mm 4 m/s 746 mmHg 76%
    04:00 +33°C° 0 mm 4 m/s 746 mmHg 77%
    05:00 +32°C° 0 mm 4 m/s 747 mmHg 78%
    06:00 +32°C° 0 mm 4 m/s 747 mmHg 79%
    07:00 +34°C° 0 mm 4 m/s 747 mmHg 71%
    08:00 +36°C° 0 mm 5 m/s 748 mmHg 64%
    09:00 +37°C° 0 mm 5 m/s 748 mmHg 56%
    10:00 +40°C° 0 mm 5 m/s 748 mmHg 50%
    11:00 +42°C° 0 mm 4 m/s 747 mmHg 44%
    12:00 +43°C° 0 mm 4 m/s 747 mmHg 38%
    13:00 +43°C° 0 mm 4 m/s 746 mmHg 37%
    14:00 +44°C° 0 mm 4 m/s 745 mmHg 36%
    15:00 +44°C° 0 mm 4 m/s 744 mmHg 35%
    16:00 +44°C° 0 mm 4 m/s 744 mmHg 37%
    17:00 +43°C° 0 mm 4 m/s 744 mmHg 38%
    18:00 +43°C° 0 mm 4 m/s 743 mmHg 40%
    19:00 +41°C° 0 mm 5 m/s 744 mmHg 46%
    20:00 +39°C° 0 mm 5 m/s 745 mmHg 51%
    21:00 +38°C° 0 mm 6 m/s 746 mmHg 57%
    22:00 +36°C° 0.2 mm 6 m/s 746 mmHg 61%
    23:00 +35°C° 0.2 mm 6 m/s 746 mmHg 66%

    22 Juin, Samedi

    Heure Température Précipitation Vent Pression Humidité
    00:00 +34°C° 0.2 mm 6 m/s 747 mmHg 70%
    01:00 +33°C° 0.4 mm 5 m/s 747 mmHg 73%
    02:00 +33°C° 0.4 mm 4 m/s 746 mmHg 75%
    03:00 +33°C° 0.4 mm 4 m/s 746 mmHg 77%
    04:00 +32°C° 0 mm 4 m/s 746 mmHg 78%
    05:00 +32°C° 0 mm 4 m/s 747 mmHg 79%
    06:00 +32°C° 0 mm 4 m/s 747 mmHg 80%
    07:00 +34°C° 0 mm 4 m/s 747 mmHg 73%
    08:00 +35°C° 0 mm 4 m/s 748 mmHg 67%
    09:00 +37°C° 0 mm 5 m/s 748 mmHg 60%
    10:00 +39°C° 0 mm 5 m/s 747 mmHg 54%
    11:00 +41°C° 0 mm 5 m/s 747 mmHg 48%
    12:00 +42°C° 0 mm 5 m/s 747 mmHg 42%
    13:00 +42°C° 0 mm 5 m/s 746 mmHg 41%
    14:00 +43°C° 0 mm 5 m/s 745 mmHg 40%
    15:00 +43°C° 0 mm 5 m/s 744 mmHg 39%
    16:00 +42°C° 0 mm 5 m/s 744 mmHg 41%
    17:00 +42°C° 0 mm 5 m/s 744 mmHg 43%
    18:00 +41°C° 0 mm 5 m/s 744 mmHg 45%
    19:00 +40°C° 0 mm 5 m/s 744 mmHg 48%
    20:00 +39°C° 0 mm 6 m/s 745 mmHg 50%
    21:00 +36°C° 0 mm 6 m/s 746 mmHg 53%
    22:00 +35°C° 0.2 mm 6 m/s 746 mmHg 57%
    23:00 +34°C° 0.2 mm 6 m/s 746 mmHg 61%
    Voir plus